FW1475 Weather Reports


Display with metric or nautical units.
time (UTC)temp
F
wind
direction
speed
MPH
gust
MPH
rain 1hr
in
rain 24hr
in
rain mn
in
humidity
%
barometer
mb
20260509222418 83 328 0.0 0.0 0.00 0.01 0.01 83 1007.6
20260509221914 83 216 0.0 0.0 0.00 0.01 0.01 82 1007.7
20260509221504 83 322 0.0 0.0 0.00 0.01 0.01 79 1012.1
20260509221411 83 3 0.0 0.0 0.00 0.01 0.01 79 1007.5
20260509221004 84 4 0.0 0.0 0.00 0.01 0.01 78 1012.0
20260509220907 84 22 0.0 0.0 0.00 0.01 0.01 78 1007.3
20260509220503 84 20 0.0 0.0 0.00 0.01 0.01 75 1012.1
20260509220402 84 17 0.0 0.0 0.00 0.01 0.01 75 1007.4
20260509220004 84 264 0.0 0.0 0.00 0.01 0.01 77 1012.0
20260509215858 84 272 0.0 0.0 0.00 0.01 0.01 77 1007.4
20260509215354 83 317 0.0 0.0 0.00 0.01 0.01 79 1007.3
20260509214852 83 213 0.0 0.0 0.00 0.01 0.01 80 1007.3
20260509214504 83 352 0.0 0.0 0.00 0.01 0.01 78 1012.0
20260509214349 83 326 0.0 0.0 0.00 0.01 0.01 78 1007.3
20260509214003 83 289 0.0 0.0 0.00 0.01 0.01 77 1012.2
20260509213846 83 256 0.0 0.0 0.00 0.01 0.01 77 1007.6
20260509213504 83 357 0.0 0.0 0.00 0.01 0.01 76 1012.3
20260509213341 84 354 0.0 0.0 0.00 0.01 0.01 76 1007.7
20260509213004 83 304 0.0 1.0 0.00 0.01 0.01 76 1012.4
20260509212839 83 298 0.0 0.0 0.00 0.01 0.01 76 1007.8
20260509212337 84 162 0.0 0.0 0.00 0.01 0.01 77 1007.8
20260509211832 83 95 0.0 0.0 0.00 0.01 0.01 77 1007.8
20260509211328 83 217 0.0 0.0 0.00 0.01 0.01 77 1007.8
20260509211003 84 278 0.0 0.0 0.00 0.01 0.01 76 1012.6
20260509210825 84 272 0.0 0.0 0.00 0.01 0.01 76 1007.9
20260509210503 85 260 0.0 0.0 0.00 0.01 0.01 75 1012.7
20260509210323 85 0 0.0 0.0 0.00 0.01 0.01 76 1008.0
20260509210004 84 218 0.0 0.0 0.00 0.01 0.01 79 1012.7
20260509205822 83 239 0.0 0.0 0.00 0.01 0.01 78 1008.0
20260509205317 83 351 0.0 0.0 0.00 0.01 0.01 80 1008.2
20260509204814 83 290 0.0 0.0 0.00 0.01 0.01 80 1008.2
20260509204503 83 342 0.0 0.0 0.00 0.01 0.01 80 1013.0
20260509204310 83 199 0.0 0.0 0.00 0.01 0.01 80 1008.2
20260509204003 83 310 0.0 0.0 0.00 0.01 0.01 79 1013.0
20260509203806 83 318 0.0 0.0 0.00 0.01 0.01 79 1008.5
20260509203503 84 208 0.0 0.0 0.00 0.01 0.01 77 1013.1
20260509203303 84 209 0.0 0.0 0.00 0.01 0.01 77 1008.4
20260509203003 83 226 0.0 0.0 0.00 0.01 0.01 79 1013.0
20260509202759 83 241 0.0 0.0 0.00 0.01 0.01 78 1008.5
20260509202255 83 17 0.0 0.0 0.00 0.01 0.01 78 1008.5
20260509201750 83 28 0.0 0.0 0.00 0.01 0.01 79 1008.6
20260509201504 83 26 0.0 1.0 0.00 0.01 0.01 80 1013.1
20260509201247 83 61 0.0 0.0 0.00 0.01 0.01 79 1008.4
20260509201004 82 237 0.0 0.0 0.00 0.01 0.01 81 1013.2
20260509200744 82 231 0.0 0.0 0.00 0.01 0.01 82 1008.6
20260509200503 82 225 0.0 0.0 0.00 0.01 0.01 82 1013.1
20260509200243 81 229 0.0 0.0 0.00 0.01 0.01 83 1008.6
20260509195740 82 221 0.0 0.0 0.00 0.01 0.01 83 1008.6
20260509195235 82 248 0.0 0.0 0.00 0.01 0.01 82 1008.7
20260509194731 82 335 0.0 0.0 0.00 0.01 0.01 82 1008.7
20260509194504 82 141 0.0 0.0 0.00 0.01 0.01 82 1013.5
20260509194226 82 333 0.0 0.0 0.00 0.01 0.01 83 1008.7
20260509194003 81 252 0.0 0.0 0.00 0.01 0.01 85 1013.4
20260509193723 81 17 0.0 0.0 0.00 0.01 0.01 85 1008.8
20260509193218 81 260 0.0 0.0 0.00 0.01 0.01 86 1009.0
20260509192714 80 342 0.0 0.0 0.00 0.01 0.01 87 1009.1
20260509192209 80 359 0.0 0.0 0.00 0.01 0.01 86 1008.9
20260509191705 80 266 0.0 0.0 0.00 0.01 0.01 86 1009.1
20260509191504 80 237 0.0 0.0 0.00 0.01 0.01 85 1013.8
20260509191201 80 5 0.0 0.0 0.00 0.01 0.01 86 1009.1
20260509191004 80 332 0.0 0.0 0.00 0.01 0.01 85 1013.7
20260509190658 80 22 0.0 0.0 0.00 0.01 0.01 86 1009.1
20260509190504 81 326 0.0 1.0 0.00 0.01 0.01 83 1013.9
20260509190155 80 331 0.0 0.0 0.00 0.01 0.01 85 1009.1
20260509190004 80 222 0.0 0.0 0.00 0.01 0.01 85 1014.0
20260509185653 80 225 0.0 0.0 0.00 0.01 0.01 85 1009.2
20260509185148 80 241 0.0 0.0 0.00 0.01 0.01 88 1009.3
20260509184646 79 210 0.0 0.0 0.00 0.01 0.01 89 1009.5
20260509184504 79 246 0.0 0.0 0.00 0.01 0.01 89 1014.1
20260509184143 79 208 0.0 0.0 0.00 0.01 0.01 91 1009.6
20260509184004 78 214 0.0 0.0 0.00 0.01 0.01 91 1014.2
20260509183639 78 242 0.0 0.0 0.00 0.01 0.01 90 1009.4
20260509183503 78 235 0.0 0.0 0.00 0.01 0.01 91 1014.1
20260509183134 77 246 0.0 0.0 0.00 0.01 0.01 93 1009.4
20260509183004 77 224 0.0 1.0 0.00 0.01 0.01 93 1014.1
20260509182631 77 240 0.0 0.0 0.00 0.01 0.01 93 1009.4
20260509182128 76 354 0.0 0.0 0.00 0.01 0.01 95 1009.6
20260509181626 75 236 0.0 0.0 0.00 0.01 0.01 98 1009.8
20260509181504 75 233 0.0 0.0 0.00 0.01 0.01 98 1014.3
20260509181123 75 228 0.0 0.0 0.00 0.01 0.01 99 1009.9
20260509181003 75 261 0.0 0.0 0.00 0.01 0.01 99 1014.5
20260509180620 75 293 0.0 0.0 0.00 0.01 0.01 99 1009.8
20260509180503 74 270 0.0 0.0 0.00 0.01 0.01 99 1014.5
20260509180116 74 240 0.0 0.0 0.00 0.01 0.01 99 1010.1
20260509180004 74 325 0.0 0.0 0.00 0.01 0.01 99 1014.6
20260509175611 74 220 0.0 0.0 0.00 0.01 0.01 99 1010.1
20260509175109 73 226 0.0 0.0 0.00 0.01 0.01 99 1010.1
20260509174605 73 227 0.0 0.0 0.00 0.01 0.01 99 1010.2
20260509174100 73 127 0.0 0.0 0.00 0.01 0.01 99 1010.4
20260509174004 73 253 0.0 0.0 0.00 0.01 0.01 99 1015.2
20260509173555 73 262 0.0 0.0 0.00 0.01 0.01 99 1010.4
20260509173504 72 263 0.0 0.0 0.00 0.01 0.01 99 1015.0
20260509173052 72 241 0.0 0.0 0.00 0.01 0.01 99 1010.4
20260509173004 72 257 0.0 0.0 0.00 0.01 0.01 99 1015.1
20260509172549 72 203 0.0 0.0 0.00 0.01 0.01 99 1010.2
20260509172045 72 184 0.0 0.0 0.00 0.01 0.01 99 1010.4
20260509171541 72 202 0.0 0.0 0.00 0.01 0.01 99 1010.5
20260509171504 72 222 0.0 0.0 0.00 0.01 0.01 99 1015.2
20260509171037 72 222 0.0 0.0 0.00 0.01 0.01 99 1010.6
20260509171004 72 222 0.0 0.0 0.00 0.01 0.01 99 1015.2
20260509170533 72 243 0.0 0.0 0.00 0.01 0.01 99 1010.6
20260509170504 72 243 0.0 0.0 0.00 0.01 0.01 99 1015.4
20260509170029 71 244 0.0 0.0 0.00 0.01 0.01 99 1010.6
20260509165528 71 186 0.0 0.0 0.00 0.01 0.01 99 1010.7
20260509165024 71 202 0.0 0.0 0.00 0.01 0.01 99 1010.7
20260509164520 71 195 0.0 0.0 0.00 0.01 0.01 99 1010.7
20260509164503 71 206 0.0 0.0 0.00 0.01 0.01 99 1015.3
20260509164015 71 229 0.0 0.0 0.00 0.01 0.01 99 1010.8
20260509163514 71 273 0.0 0.0 0.00 0.01 0.01 99 1010.5
20260509163008 71 227 0.0 0.0 0.00 0.01 0.01 99 1010.4
20260509163004 71 233 0.0 0.0 0.00 0.01 0.01 99 1015.2
20260509162506 71 211 0.0 0.0 0.00 0.01 0.01 99 1010.4
20260509162001 71 204 0.0 0.0 0.00 0.01 0.01 99 1010.4
20260509161503 71 202 0.0 0.0 0.00 0.01 0.01 99 1015.0
20260509161459 71 204 0.0 0.0 0.00 0.01 0.01 99 1010.5
20260509161004 71 193 0.0 0.0 0.00 0.01 0.01 99 1015.1
20260509160953 71 205 0.0 0.0 0.00 0.01 0.01 99 1010.4
20260509160449 71 206 0.0 0.0 0.00 0.01 0.01 99 1010.1
20260509160003 71 185 0.0 0.0 0.00 0.01 0.01 99 1014.9
20260509155944 71 204 0.0 0.0 0.00 0.01 0.01 99 1010.1
20260509155442 71 293 0.0 0.0 0.00 0.01 0.01 99 1010.1
20260509154938 70 10 0.0 0.0 0.00 0.01 0.01 99 1010.2
20260509154504 70 214 0.0 0.0 0.00 0.01 0.01 99 1014.8
20260509154434 70 214 0.0 0.0 0.00 0.01 0.01 99 1010.2
20260509154003 71 206 0.0 0.0 0.00 0.01 0.01 99 1014.7
20260509153932 71 206 0.0 0.0 0.00 0.01 0.01 99 1010.0
20260509153504 70 210 0.0 0.0 0.00 0.01 0.01 99 1014.8
20260509153428 70 213 0.0 0.0 0.00 0.01 0.01 99 1010.2
20260509152926 70 220 0.0 0.0 0.00 0.01 0.01 99 1009.9
20260509152421 70 233 0.0 0.0 0.00 0.01 0.01 99 1010.1
20260509151919 70 209 0.0 0.0 0.00 0.01 0.01 99 1010.0
20260509151503 70 209 0.0 0.0 0.00 0.01 0.01 99 1014.6
20260509151414 70 211 0.0 0.0 0.00 0.01 0.01 99 1010.0
20260509151004 70 212 0.0 0.0 0.00 0.01 0.01 99 1014.5
20260509150913 70 212 0.0 0.0 0.00 0.01 0.01 99 1009.9
20260509150504 69 206 0.0 0.0 0.00 0.01 0.01 99 1014.5
20260509150410 69 204 0.0 0.0 0.00 0.01 0.01 99 1009.9
20260509150004 70 208 0.0 0.0 0.00 0.01 0.01 99 1014.3
20260509145908 70 208 0.0 0.0 0.00 0.01 0.01 99 1009.7
20260509145408 70 280 0.0 0.0 0.00 0.01 0.01 99 1009.9
20260509144904 70 263 0.0 0.0 0.00 0.01 0.01 99 1009.8
20260509144504 69 196 0.0 0.0 0.00 0.01 0.01 99 1014.4
20260509144401 69 192 0.0 0.0 0.00 0.01 0.01 99 1009.8
20260509144004 70 213 0.0 0.0 0.00 0.01 0.01 99 1014.8
20260509143858 70 215 0.0 0.0 0.00 0.01 0.01 99 1010.1
20260509143504 69 216 0.0 0.0 0.00 0.01 0.01 99 1014.8
20260509143355 69 216 0.0 0.0 0.00 0.01 0.01 99 1010.2
20260509142851 69 216 0.0 0.0 0.00 0.01 0.01 99 1010.2
20260509142348 69 213 0.0 0.0 0.00 0.01 0.01 99 1010.2
20260509141843 69 217 0.0 0.0 0.00 0.01 0.01 99 1010.1
20260509141504 69 184 0.0 0.0 0.00 0.01 0.01 99 1015.0
20260509141341 69 180 0.0 0.0 0.00 0.01 0.01 99 1010.3
20260509141003 69 235 0.0 0.0 0.00 0.01 0.01 99 1014.9
20260509140837 69 235 0.0 0.0 0.00 0.01 0.01 99 1010.3
20260509140504 69 0 0.0 0.0 0.00 0.01 0.01 99 1014.9
20260509140334 69 4 0.0 0.0 0.00 0.01 0.01 99 1010.3
20260509140005 69 196 0.0 0.0 0.00 0.01 0.01 99 1015.1
20260509135832 69 180 0.0 0.0 0.00 0.01 0.01 99 1010.4
20260509135329 69 23 0.0 0.0 0.00 0.01 0.01 99 1010.4
20260509134827 69 249 0.0 0.0 0.00 0.01 0.01 99 1010.4
20260509134504 69 214 0.0 0.0 0.00 0.01 0.01 99 1014.8
20260509134324 69 67 0.0 0.0 0.00 0.01 0.01 99 1010.2
20260509134004 69 336 0.0 0.0 0.00 0.01 0.01 99 1014.9
20260509133820 69 350 0.0 0.0 0.00 0.01 0.01 99 1010.3
20260509133317 69 207 0.0 0.0 0.00 0.01 0.01 99 1009.9
20260509133004 69 213 0.0 0.0 0.00 0.01 0.01 99 1014.6
20260509132816 69 202 0.0 0.0 0.00 0.01 0.01 99 1010.0
20260509132314 69 214 0.0 0.0 0.00 0.01 0.01 99 1009.9
20260509131810 69 198 0.0 0.0 0.00 0.01 0.01 99 1010.1
20260509131504 69 211 0.0 0.0 0.00 0.01 0.01 99 1014.7
20260509131307 69 203 0.0 0.0 0.00 0.01 0.01 99 1010.1
20260509131004 69 211 0.0 0.0 0.00 0.01 0.01 99 1014.9
20260509130804 69 200 0.0 0.0 0.00 0.01 0.01 99 1010.3
20260509130504 69 205 0.0 0.0 0.00 0.01 0.01 99 1014.9
20260509130259 69 205 0.0 0.0 0.00 0.01 0.01 99 1010.2
20260509130004 68 204 0.0 0.0 0.00 0.01 0.01 99 1014.6
20260509125756 68 198 0.0 0.0 0.00 0.01 0.01 99 1009.9
20260509125253 68 213 0.0 0.0 0.00 0.01 0.01 99 1009.9
20260509124749 68 213 0.0 0.0 0.00 0.01 0.01 99 1009.8
20260509124504 68 230 0.0 0.0 0.00 0.01 0.01 99 1014.4
20260509124246 68 254 0.0 0.0 0.00 0.01 0.01 99 1009.9
20260509124003 68 236 0.0 0.0 0.00 0.01 0.01 99 1014.5
20260509123744 68 236 0.0 0.0 0.00 0.01 0.01 99 1010.0
20260509123504 68 265 0.0 0.0 0.00 0.01 0.01 99 1014.6
20260509123241 68 228 0.0 0.0 0.00 0.01 0.01 99 1010.0
20260509123004 68 244 0.0 0.0 0.00 0.01 0.01 99 1014.5
20260509122736 68 211 0.0 0.0 0.00 0.01 0.01 99 1009.9
20260509122234 68 212 0.0 0.0 0.00 0.01 0.01 99 1010.0
20260509121731 68 221 0.0 0.0 0.00 0.01 0.01 99 1009.8
20260509121504 68 221 0.0 0.0 0.01 0.01 0.01 99 1014.5
20260509121228 68 204 0.0 0.0 0.00 0.01 0.01 99 1009.8
20260509120726 68 204 0.0 0.0 0.00 0.01 0.01 99 1009.6
20260509120223 68 204 0.0 0.0 0.00 0.01 0.01 99 1009.6
20260509120004 68 236 0.0 0.0 0.01 0.01 0.01 99 1014.2
20260509115721 68 211 0.0 0.0 0.00 0.01 0.01 99 1009.7
20260509115218 68 202 0.0 0.0 0.00 0.01 0.01 99 1009.7
20260509114717 68 223 0.0 0.0 0.00 0.01 0.01 99 1009.7
20260509114504 68 231 0.0 0.0 0.01 0.01 0.01 99 1014.3
20260509114215 68 348 0.0 0.0 0.00 0.01 0.01 99 1009.5
20260509114004 68 5 0.0 0.0 0.01 0.01 0.01 99 1014.2
20260509113713 68 195 0.0 0.0 0.00 0.01 0.01 99 1009.6
20260509113503 68 198 0.0 0.0 0.01 0.01 0.01 99 1014.2
20260509113210 68 198 0.0 0.0 0.07 0.01 0.01 99 1009.7
20260509113003 68 198 0.0 0.0 0.01 0.01 0.01 99 1014.3
20260509112707 68 198 0.0 0.0 0.07 0.01 0.01 99 1009.8
20260509112204 68 219 0.0 0.0 0.00 0.00 0.00 99 1009.5
20260509111701 68 220 0.0 0.0 0.00 0.00 0.00 99 1009.6
20260509111504 68 213 0.0 0.0 0.00 0.00 0.00 99 1014.4
20260509111157 68 210 0.0 0.0 0.00 0.00 0.00 99 1009.7
20260509111004 68 210 0.0 0.0 0.00 0.00 0.00 99 1014.2
20260509110655 68 200 0.0 0.0 0.00 0.00 0.00 99 1009.5
20260509110503 68 206 0.0 0.0 0.00 0.00 0.00 99 1014.2
20260509110151 68 196 0.0 0.0 0.00 0.00 0.00 99 1009.5
20260509110004 68 204 0.0 0.0 0.00 0.00 0.00 99 1014.3
20260509105649 68 195 0.0 0.0 0.00 0.00 0.00 99 1009.6
20260509105147 68 327 0.0 0.0 0.00 0.00 0.00 99 1009.5
20260509104644 68 337 0.0 0.0 0.00 0.00 0.00 99 1009.7
20260509104504 68 6 0.0 0.0 0.00 0.00 0.00 99 1014.3
20260509104141 68 330 0.0 0.0 0.00 0.00 0.00 99 1009.5
20260509104003 68 286 0.0 0.0 0.00 0.00 0.00 99 1014.1
20260509103638 68 320 0.0 0.0 0.00 0.00 0.00 99 1009.6
20260509103504 68 255 0.0 0.0 0.00 0.00 0.00 99 1014.1
20260509103136 68 307 0.0 0.0 0.00 0.00 0.00 99 1009.5
20260509103004 69 248 0.0 0.0 0.00 0.00 0.00 99 1014.1
20260509102633 69 338 0.0 0.0 0.00 0.00 0.00 99 1009.4
20260509102130 69 11 0.0 0.0 0.00 0.00 0.00 99 1009.4
20260509101627 69 354 0.0 0.0 0.00 0.00 0.00 99 1009.3
20260509101503 69 355 0.0 0.0 0.00 0.00 0.00 99 1013.9
20260509101123 69 355 0.0 0.0 0.00 0.00 0.00 99 1009.3
20260509101004 69 355 0.0 0.0 0.00 0.00 0.00 99 1013.7
20260509100621 69 355 0.0 0.0 0.00 0.00 0.00 99 1009.0
20260509100118 69 355 0.0 0.0 0.00 0.00 0.00 99 1009.2
20260509095614 69 16 0.0 0.0 0.00 0.00 0.00 99 1009.1
20260509095112 69 202 0.0 0.0 0.00 0.00 0.00 99 1008.8
20260509094608 69 201 0.0 0.0 0.00 0.00 0.00 99 1008.7
20260509094503 69 201 0.0 0.0 0.00 0.00 0.00 99 1013.2
20260509094105 69 201 0.0 0.0 0.00 0.00 0.00 99 1008.5
20260509094004 69 200 0.0 0.0 0.00 0.00 0.00 99 1013.4
20260509093604 69 201 0.0 0.0 0.00 0.00 0.00 99 1008.7
20260509093503 69 201 0.0 0.0 0.00 0.00 0.00 99 1013.2
20260509093100 69 201 0.0 0.0 0.00 0.00 0.00 99 1008.6
20260509093003 69 201 0.0 0.0 0.00 0.00 0.00 99 1013.2
20260509092558 69 201 0.0 0.0 0.00 0.00 0.00 99 1008.6
20260509092057 69 201 0.0 0.0 0.00 0.00 0.00 99 1008.9
20260509091554 69 205 0.0 0.0 0.00 0.00 0.00 99 1009.0
20260509091504 69 204 0.0 0.0 0.00 0.00 0.00 99 1013.5
20260509091050 69 229 0.0 0.0 0.00 0.00 0.00 99 1009.3
20260509090548 69 205 0.0 0.0 0.00 0.00 0.00 99 1008.8
20260509090504 69 205 0.0 0.0 0.00 0.00 0.00 99 1013.5
20260509090045 69 222 0.0 0.0 0.00 0.00 0.00 99 1008.9
20260509090003 69 224 0.0 0.0 0.00 0.00 0.00 99 1013.5
20260509085542 69 228 0.0 0.0 0.00 0.00 0.00 99 1009.1
20260509085038 69 241 0.0 0.0 0.00 0.00 0.00 99 1009.3
20260509084536 69 240 0.0 0.0 0.00 0.00 0.00 99 1009.4
20260509084503 69 285 0.0 0.0 0.00 0.00 0.00 99 1013.9
20260509084033 69 27 0.0 0.0 0.00 0.00 0.00 99 1009.2
20260509084004 69 30 0.0 0.0 0.00 0.00 0.00 99 1014.0
20260509083530 69 29 0.0 0.0 0.00 0.00 0.00 99 1009.3
20260509083504 69 29 0.0 0.0 0.00 0.00 0.00 99 1013.9
20260509083026 69 28 0.0 0.0 0.00 0.00 0.00 99 1009.5
20260509083004 69 28 0.0 0.0 0.00 0.00 0.00 99 1014.0
20260509082524 69 28 0.0 0.0 0.00 0.00 0.00 99 1009.7
20260509082021 69 28 0.0 0.0 0.00 0.00 0.00 99 1009.4
20260509081518 69 5 0.0 0.0 0.00 0.00 0.00 99 1009.8
20260509081504 69 328 0.0 0.0 0.00 0.00 0.00 99 1014.4
20260509081015 69 259 0.0 0.0 0.00 0.00 0.00 99 1009.7
20260509081005 69 236 0.0 0.0 0.00 0.00 0.00 99 1014.4
20260509080513 69 238 0.0 0.0 0.00 0.00 0.00 99 1009.9
20260509080011 69 249 0.0 0.0 0.00 0.00 0.00 99 1009.6
20260509080004 69 205 0.0 0.0 0.00 0.00 0.00 99 1014.4
20260509075508 69 200 0.0 0.0 0.00 0.00 0.00 99 1009.6
20260509075006 69 201 0.0 0.0 0.00 0.00 0.00 99 1009.7
20260509074503 70 201 0.0 0.0 0.00 0.00 0.00 99 1009.6
20260509074004 70 200 0.0 0.0 0.00 0.00 0.00 99 1014.2
20260509073959 70 200 0.0 0.0 0.00 0.00 0.00 99 1009.7
20260509073504 70 200 0.0 0.0 0.00 0.00 0.00 99 1014.2
20260509073455 70 200 0.0 0.0 0.00 0.00 0.00 99 1009.4
20260509073004 70 200 0.0 0.0 0.00 0.00 0.00 99 1014.0
20260509072952 70 200 0.0 0.0 0.00 0.00 0.00 99 1009.4
20260509072449 70 200 0.0 0.0 0.00 0.00 0.00 99 1009.5
20260509071946 70 200 0.0 0.0 0.00 0.00 0.00 99 1009.9
20260509071504 69 200 0.0 0.0 0.00 0.00 0.00 99 1014.5
20260509071442 70 200 0.0 0.0 0.00 0.00 0.00 99 1009.8
20260509071003 70 200 0.0 0.0 0.00 0.00 0.00 99 1014.3
20260509070940 70 200 0.0 0.0 0.00 0.00 0.00 99 1009.8
20260509070503 70 200 0.0 0.0 0.00 0.00 0.00 99 1014.6
20260509070437 70 200 0.0 0.0 0.00 0.00 0.00 99 1009.9
20260509065932 70 200 0.0 0.0 0.00 0.00 0.00 99 1010.0
20260509065428 70 200 0.0 0.0 0.00 0.00 0.00 99 1010.0
20260509064925 70 200 0.0 0.0 0.00 0.00 0.00 99 1009.9
20260509064504 70 200 0.0 0.0 0.00 0.00 0.00 99 1014.5
20260509064422 70 200 0.0 0.0 0.00 0.00 0.00 99 1009.9
20260509063920 70 200 0.0 0.0 0.00 0.00 0.00 99 1010.1
20260509063416 70 197 0.0 0.0 0.00 0.00 0.00 99 1010.0
20260509063004 70 197 0.0 0.0 0.00 0.00 0.00 99 1014.9
20260509062913 70 197 0.0 0.0 0.00 0.00 0.00 99 1010.2
20260509062410 70 197 0.0 0.0 0.00 0.00 0.00 99 1010.3
20260509061907 70 197 0.0 0.0 0.00 0.00 0.00 99 1010.2
20260509061504 70 197 0.0 0.0 0.00 0.00 0.00 99 1014.8
20260509061406 70 197 0.0 0.0 0.00 0.00 0.00 99 1010.1
20260509061004 70 197 0.0 0.0 0.00 0.00 0.00 99 1015.1
20260509060902 70 197 0.0 0.0 0.00 0.00 0.00 99 1010.5
20260509060504 70 197 0.0 0.0 0.00 0.00 0.00 99 1015.2
20260509060359 70 197 0.0 0.0 0.00 0.00 0.00 99 1010.5
20260509060004 70 197 0.0 0.0 0.00 0.00 0.00 99 1015.0
20260509055854 70 197 0.0 0.0 0.00 0.00 0.00 99 1010.4
20260509055350 70 206 0.0 0.0 0.00 0.00 0.00 99 1010.5
20260509054847 70 207 0.0 0.0 0.00 0.00 0.00 98 1010.4
20260509054504 70 207 0.0 0.0 0.00 0.00 0.00 98 1015.2
20260509054344 70 207 0.0 0.0 0.00 0.00 0.00 98 1010.6
20260509054003 70 207 0.0 0.0 0.00 0.00 0.00 98 1015.3
20260509053842 70 207 0.0 0.0 0.00 0.00 0.00 98 1010.7
20260509053503 70 207 0.0 0.0 0.00 0.00 0.00 99 1015.3
20260509053339 70 207 0.0 0.0 0.00 0.00 0.00 99 1010.7
20260509053003 70 207 0.0 0.0 0.00 0.00 0.00 99 1015.2
20260509052837 70 207 0.0 0.0 0.00 0.00 0.00 99 1010.5
20260509052334 70 216 0.0 0.0 0.00 0.00 0.00 99 1010.4
20260509051832 70 209 0.0 0.0 0.00 0.00 0.00 99 1010.5
20260509051503 70 247 0.0 0.0 0.00 0.00 0.00 99 1015.2
20260509051330 70 247 0.0 0.0 0.00 0.00 0.00 99 1010.6
20260509051004 70 248 0.0 0.0 0.00 0.00 0.00 99 1015.0
20260509050826 70 248 0.0 0.0 0.00 0.00 0.00 99 1010.2
20260509050503 70 248 0.0 0.0 0.00 0.00 0.00 99 1014.7
20260509050323 70 248 0.0 0.0 0.00 0.00 0.00 99 1010.2
20260509050004 70 251 0.0 0.0 0.00 0.01 0.00 99 1014.8
20260509045820 70 246 0.0 0.0 0.00 0.00 0.00 99 1010.2
20260509045317 70 240 0.0 0.0 0.00 0.00 0.00 99 1010.2
20260509044814 70 241 0.0 0.0 0.00 0.00 0.00 99 1010.0
20260509044312 70 282 0.0 0.0 0.00 0.00 0.00 99 1010.0
20260509044003 70 246 0.0 0.0 0.00 0.01 0.00 99 1014.6
20260509043808 70 246 0.0 0.0 0.00 0.00 0.00 99 1010.0
20260509043304 70 246 0.0 0.0 0.00 0.00 0.00 99 1009.9
20260509043004 70 246 0.0 0.0 0.00 0.01 0.00 99 1014.6
20260509042800 70 246 0.0 0.0 0.00 0.00 0.00 98 1009.9
20260509042257 70 246 0.0 0.0 0.00 0.00 0.00 98 1009.9
20260509041753 70 245 0.0 0.0 0.00 0.00 0.00 98 1009.8
20260509041503 70 246 0.0 0.0 0.00 0.01 0.00 98 1014.5
20260509041250 70 245 0.0 0.0 0.00 0.00 0.00 98 1010.0
20260509041004 70 255 0.0 1.0 0.00 0.01 0.00 98 1014.6
20260509040749 70 271 0.0 0.0 0.00 0.00 0.00 98 1009.9
20260509040246 70 42 0.0 0.0 0.00 0.00 0.00 98 1010.0
20260509040004 70 89 0.0 0.0 0.00 0.01 0.00 98 1014.3
20260509035742 70 187 0.0 0.0 0.00 0.00 0.00 98 1009.9
20260509035239 70 199 0.0 0.0 0.00 0.00 0.00 98 1009.7
20260509034736 70 199 0.0 0.0 0.00 0.00 0.00 98 1009.9
20260509034503 70 198 0.0 0.0 0.00 0.01 0.00 98 1014.4
20260509034234 70 193 0.0 0.0 0.00 0.00 0.00 98 1009.7
20260509034004 70 198 0.0 0.0 0.00 0.01 0.00 98 1014.2
20260509033731 70 202 0.0 0.0 0.00 0.00 0.00 98 1009.6
20260509033503 70 199 0.0 1.0 0.00 0.01 0.00 98 1014.0
20260509033228 70 212 0.0 0.0 0.00 0.00 0.00 98 1009.5
20260509033004 70 180 0.0 1.0 0.00 0.01 0.00 98 1014.0
20260509032725 70 218 0.0 0.0 0.00 0.00 0.00 98 1009.5
20260509032222 70 202 0.0 0.0 0.00 0.00 0.00 98 1009.8
20260509031719 70 209 0.0 0.0 0.00 0.00 0.00 98 1009.7
20260509031503 70 200 0.0 0.0 0.00 0.01 0.00 98 1014.3
20260509031217 70 209 0.0 0.0 0.00 0.00 0.00 98 1009.6
20260509031004 70 247 0.0 0.0 0.00 0.01 0.00 98 1014.4
20260509030715 70 206 0.0 0.0 0.00 0.00 0.00 98 1009.7
20260509030504 70 207 0.0 0.0 0.00 0.01 0.00 98 1014.3
20260509030212 70 218 0.0 0.0 0.00 0.00 0.00 98 1009.8
20260509030004 70 198 0.0 0.0 0.00 0.01 0.00 98 1014.2
20260509025708 70 201 0.0 0.0 0.00 0.00 0.00 98 1009.5
20260509025204 70 207 0.0 0.0 0.00 0.00 0.00 98 1009.4
20260509024659 69 208 0.0 0.0 0.00 0.00 0.00 98 1009.4
20260509024503 69 208 0.0 0.0 0.00 0.01 0.00 98 1013.8
20260509024155 69 211 0.0 0.0 0.00 0.00 0.00 98 1009.3
20260509024004 69 198 0.0 0.0 0.00 0.01 0.00 98 1013.6
20260509023653 69 215 0.0 0.0 0.00 0.00 0.00 98 1009.2
20260509023150 69 219 0.0 0.0 0.00 0.00 0.00 98 1008.9
20260509023004 69 199 0.0 1.0 0.00 0.01 0.00 98 1013.5
20260509022646 69 215 0.0 0.0 0.00 0.00 0.00 98 1008.8
20260509022144 69 162 1.0 1.0 0.00 0.00 0.00 98 1008.7
20260509021641 69 186 0.0 1.0 0.00 0.00 0.00 98 1008.6
20260509021503 69 194 0.0 0.0 0.00 0.01 0.00 98 1013.3
20260509021138 69 192 0.0 0.0 0.00 0.00 0.00 98 1008.4
20260509021004 69 183 0.0 0.0 0.00 0.01 0.00 98 1013.2
20260509020636 69 182 0.0 0.0 0.00 0.00 0.00 98 1008.1
20260509020133 70 195 0.0 0.0 0.00 0.00 0.00 97 1008.0
20260509020004 70 186 0.0 0.0 0.00 0.01 0.00 97 1012.9
20260509015632 70 186 0.0 0.0 0.00 0.00 0.00 97 1008.4
20260509015129 70 197 0.0 0.0 0.00 0.00 0.00 97 1008.3
20260509014625 70 206 0.0 0.0 0.00 0.00 0.00 97 1008.2
20260509014504 70 201 0.0 0.0 0.00 0.01 0.00 97 1012.8
20260509014122 70 182 0.0 0.0 0.00 0.00 0.00 97 1008.0
20260509014004 70 178 1.0 1.0 0.00 0.01 0.00 97 1012.9
20260509013619 70 177 0.0 0.0 0.00 0.00 0.00 96 1008.1
20260509013503 70 189 1.0 1.0 0.00 0.01 0.00 96 1012.7
20260509013114 70 182 1.0 1.0 0.00 0.00 0.00 96 1008.2
20260509012611 70 187 1.0 2.0 0.00 0.00 0.00 96 1008.2
20260509012108 71 205 0.0 0.0 0.00 0.00 0.00 95 1008.4
20260509011606 71 195 0.0 0.0 0.00 0.00 0.00 95 1008.2
20260509011503 71 203 0.0 0.0 0.00 0.01 0.00 95 1012.9
20260509011103 71 205 0.0 0.0 0.00 0.00 0.00 95 1008.3
20260509011003 71 202 0.0 2.0 0.00 0.01 0.00 94 1013.0
20260509010601 71 185 2.0 2.0 0.00 0.00 0.00 94 1008.4
20260509010503 71 196 0.0 0.0 0.00 0.01 0.00 94 1013.0
20260509010057 71 195 0.0 0.0 0.00 0.00 0.00 94 1008.3
20260509010004 71 195 0.0 1.0 0.00 0.01 0.00 94 1013.0
20260509005555 71 202 0.0 0.0 0.00 0.00 0.00 93 1008.4
20260509005050 71 212 0.0 0.0 0.00 0.00 0.00 93 1008.4
20260509004547 72 211 0.0 0.0 0.00 0.00 0.00 92 1008.3
20260509004504 72 199 0.0 1.0 0.00 0.01 0.00 92 1012.9
20260509004044 72 193 0.0 1.0 0.00 0.00 0.00 92 1008.5
20260509004004 72 198 1.0 1.0 0.00 0.01 0.00 92 1013.1
20260509003542 72 199 0.0 1.0 0.00 0.00 0.00 92 1008.6
20260509003503 72 201 0.0 1.0 0.00 0.01 0.00 91 1013.2
20260509003039 72 200 0.0 1.0 0.00 0.00 0.00 91 1008.5
20260509003004 72 181 1.0 3.0 0.00 0.01 0.00 91 1013.0
20260509002537 72 125 2.0 3.0 0.00 0.00 0.00 91 1008.2
20260509002034 73 164 2.0 2.0 0.00 0.00 0.00 90 1008.6
20260509001531 73 157 1.0 1.0 0.00 0.00 0.00 90 1008.8
20260509001027 73 207 0.0 0.0 0.00 0.00 0.00 89 1008.5
20260509001004 73 202 1.0 1.0 0.00 0.01 0.00 89 1013.2
20260509000526 73 194 0.0 0.0 0.00 0.00 0.00 89 1008.8
20260509000504 73 210 0.0 1.0 0.00 0.01 0.00 89 1013.4
20260509000021 73 221 0.0 0.0 0.00 0.00 0.00 89 1009.0
20260509000004 73 223 0.0 1.0 0.00 0.01 0.00 89 1013.8
20260508235519 73 207 0.0 0.0 0.00 0.00 0.00 89 1009.2
20260508235015 73 219 0.0 0.0 0.00 0.00 0.00 88 1009.4
20260508234513 73 218 0.0 0.0 0.00 0.00 0.00 88 1009.6
20260508234504 73 204 0.0 0.0 0.00 0.01 0.00 88 1014.1
20260508234010 73 198 0.0 0.0 0.00 0.00 0.00 88 1009.5
20260508234004 73 198 0.0 1.0 0.00 0.01 0.00 87 1014.2
20260508233509 73 213 0.0 0.0 0.00 0.00 0.00 87 1009.7
20260508233504 73 215 0.0 0.0 0.00 0.01 0.00 87 1014.3
20260508233006 73 246 0.0 0.0 0.00 0.00 0.00 87 1009.6
20260508233004 73 246 0.0 0.0 0.00 0.01 0.00 87 1014.1
20260508232503 73 198 0.0 0.0 0.00 0.00 0.00 87 1009.4
20260508231959 73 215 0.0 0.0 0.00 0.00 0.00 88 1009.4
20260508231504 72 308 0.0 0.0 0.00 0.01 0.00 88 1014.3
20260508231457 72 308 0.0 0.0 0.00 0.00 0.00 88 1009.8
20260508230954 72 308 0.0 0.0 0.00 0.00 0.00 88 1009.8
20260508230504 72 303 0.0 1.0 0.00 0.01 0.00 88 1014.4
20260508230451 72 309 0.0 0.0 0.00 0.00 0.00 88 1009.8
20260508230004 72 261 0.0 1.0 0.00 0.01 0.00 87 1014.3
20260508225947 72 261 0.0 0.0 0.00 0.00 0.00 87 1009.8
20260508225444 73 11 1.0 1.0 0.00 0.00 0.00 87 1009.7
20260508224942 73 238 0.0 0.0 0.00 0.00 0.00 86 1009.5
20260508224503 73 224 0.0 0.0 0.00 0.01 0.00 86 1014.1
20260508224439 73 214 0.0 0.0 0.00 0.00 0.00 86 1009.5
20260508223936 73 286 0.0 0.0 0.00 0.00 0.00 86 1009.5
20260508223503 73 213 0.0 0.0 0.00 0.01 0.00 86 1014.1
20260508223434 73 226 0.0 0.0 0.00 0.00 0.00 86 1009.4
20260508223004 73 175 0.0 1.0 0.00 0.01 0.00 85 1013.8
20260508222931 73 200 0.0 0.0 0.00 0.00 0.00 85 1009.3